Weather observations for the past three days for
Sarasota / Bradenton, Sarasota-Bradenton International Airport
Metric (Imperial)
Date Time (edt) Wind (kph) Vis. (km) Weather Sky Cond. Temperature (ºC) Relative Humidity Wind Chill (°C) Heat Index (°C) Pressure Precipitation (cm)
Air Dwpt 6 hour altimeter (cm) sea level (mb) 1 hr 3 hr 6 hr
Max. Min.
07 12:53 SW 19 16.09 Fair CLR 27.8 22.2 72% 30 76.28 1016.8
07 11:53 SW 20 16.09 Fair CLR 27.8 22.2 72% 30 76.3 1017.1
07 10:53 S 19 16.09 Fair CLR 27.8 21.7 69% 30 76.3 1017.0
07 09:53 SW 19 16.09 Fair CLR 26.7 21.1 71% 28 76.28 1016.8
07 08:53 S 13 16.09 Fair CLR 25.6 22.2 82% 27 76.25 1016.3
07 07:53 S 9 16.09 Fair CLR 22.8 21.1 23.9 21.7 90% 76.2 1015.9
07 06:53 SE 6 16.09 Fair CLR 21.7 20 90% 76.17 1015.6
07 05:53 SE 6 16.09 Fair CLR 22.2 20.6 91% 76.15 1015.2
07 04:53 S 6 16.09 Fair CLR 22.8 21.1 90% 76.12 1014.8
07 03:53 E 6 16.09 Fair CLR 23.3 21.7 91% 76.1 1014.4
07 02:53 E 7 16.09 Fair CLR 23.9 22.2 90% 23 76.12 1014.8
07 01:53 E 6 16.09 Fair CLR 23.9 22.2 26.1 23.9 90% 23 76.2 1015.7
07 00:53 NE 6 16.09 Fair CLR 24.4 22.2 88% 25 76.25 1016.3
06 23:53 Calm 16.09 Fair CLR 24.4 22.2 88% 25 76.23 1016.1
06 22:53 N 6 16.09 Fair CLR 24.4 22.2 88% 25 76.2 1015.9
06 21:53 W 9 16.09 Fair CLR 25 22.8 88% 26 76.2 1015.8
06 20:53 W 11 16.09 Fair CLR 25 22.2 85% 26 76.2 1015.6
06 19:53 W 15 16.09 Fair CLR 26.1 22.2 28.9 26.1 79% 28 76.2 1015.8
06 18:53 W 15 16.09 Fair CLR 26.7 22.2 76% 29 76.2 1015.7
06 17:53 SW 17 16.09 Fair CLR 27.8 21.7 69% 30 76.17 1015.6
06 16:53 SW 19 16.09 Fair CLR 27.8 22.8 74% 31 76.2 1015.6
06 15:53 SW 19 16.09 Fair CLR 28.3 22.8 72% 32 76.2 1015.8
06 14:53 SW 22 G 35 16.09 Fair CLR 28.3 22.8 72% 32 76.23 1016.2
06 13:53 SW 20 16.09 Fair CLR 28.9 22.8 30.6 21.7 70% 32 76.28 1016.9
06 12:53 SW 22 16.09 Fair CLR 28.9 22.8 70% 32 76.3 1017.2
06 11:53 S 22 16.09 A Few Clouds FEW029 FEW034 29.4 22.2 65% 33 76.3 1017.3
06 10:53 SE 17 16.09 Fair CLR 28.9 21.1 63% 31 76.3 1017.0
06 09:53 SE 17 16.09 Fair CLR 27.8 21.1 67% 30 76.28 1017.0
06 08:53 SE 17 16.09 Fair CLR 25 21.1 79% 26 76.25 1016.6
06 07:53 SE 11 16.09 Fair CLR 21.7 20 23.3 21.1 90% 76.25 1016.3
06 06:53 E 7 16.09 Fair CLR 21.1 19.4 90% 76.2 1015.7
06 05:53 E 9 16.09 Fair CLR 21.1 19.4 90% 76.17 1015.4
06 04:53 E 9 16.09 Fair CLR 21.7 19.4 87% 76.15 1015.2
06 03:53 SE 11 16.09 Fair CLR 22.2 19.4 84% 76.15 1015.2
06 02:53 E 11 16.09 Fair CLR 22.8 18.9 79% 76.2 1015.6
06 01:53 E 11 16.09 Fair CLR 23.3 18.9 25.6 23.3 76% 76.2 1015.8
06 00:53 E 11 16.09 Fair CLR 24.4 18.3 69% 25 76.25 1016.5
05 23:53 E 11 16.09 Overcast OVC036 25 19.4 71% 26 76.23 1016.2
05 22:53 E 6 16.09 Fair CLR 24.4 20 77% 25 76.23 1016.1
05 21:53 N 9 16.09 A Few Clouds FEW060 24.4 20.6 79% 25 76.2 1015.7
05 20:53 NW 7 16.09 Fair CLR 25 20.6 77% 26 76.15 1015.0
05 19:53 NW 15 16.09 Fair CLR 25.6 20 29.4 25.6 71% 27 76.1 1014.6
05 18:53 NW 17 16.09 Fair CLR 27.2 20.6 67% 29 76.1 1014.4
05 17:53 W 20 16.09 Fair CLR 27.2 20.6 67% 29 76.1 1014.4
05 16:53 W 22 16.09 Fair CLR 27.8 20.6 65% 30 76.1 1014.3
05 15:53 W 26 16.09 Fair CLR 28.9 20.6 61% 31 76.12 1014.7
05 14:53 W 20 16.09 Fair CLR 28.3 20.6 63% 30 76.12 1014.8
05 13:53 W 17 16.09 A Few Clouds FEW055 FEW070 28.9 20 30 22.2 59% 31 76.17 1015.3
05 12:53 E 7 16.09 Partly Cloudy FEW045 SCT055 29.4 17.8 50% 30 76.2 1015.8
05 11:53 SE 13 16.09 Mostly Cloudy BKN036 28.3 18.9 57% 30 76.23 1016.0
05 10:53 E 13 16.09 Fair CLR 27.2 18.3 58% 28 76.23 1016.2
05 09:53 E 19 16.09 Fair CLR 25.6 17.8 62% 27 76.17 1015.6
05 08:53 E 13 16.09 Fair CLR 24.4 18.3 69% 25 76.17 1015.4
05 07:53 E 11 16.09 Fair CLR 22.2 17.8 22.2 20 76% 76.15 1015.2
05 06:53 E 9 16.09 Fair CLR 20 17.2 84% 76.1 1014.5
05 05:53 E 9 16.09 Fair CLR 20.6 17.2 81% 76.07 1014.2
05 04:53 E 11 16.09 Fair CLR 20.6 17.2 81% 76.05 1013.8
05 03:53 E 13 16.09 Fair CLR 21.1 17.2 79% 76.05 1013.9
05 02:53 E 11 16.09 Fair CLR 21.1 17.2 79% 76.07 1014.0
05 01:53 E 11 16.09 Mostly Cloudy SCT047 BKN060 BKN075 22.2 17.2 27.2 22.2 73% 76.15 1015.1
05 00:53 E 13 16.09 A Few Clouds FEW050 22.8 17.2 71% 76.15 1015.1
04 23:53 E 15 16.09 Fair CLR 22.8 17.2 71% 76.17 1015.5
04 22:53 E 11 16.09 Mostly Cloudy BKN055 23.9 17.2 66% 25 76.2 1015.8
04 21:53 E 20 G 31 16.09 Overcast SCT046 OVC065 25 17.2 62% 26 76.15 1015.2
04 20:53 E 19 G 37 16.09 Partly Cloudy SCT055 SCT100 26.1 17.2 58% 27 76.1 1014.3
04 19:53 E 17 16.09 Mostly Cloudy BKN060 BKN090 27.2 16.7 30.6 27.2 53% 28 76.02 1013.4
04 18:53 E 7 16.09 Fair CLR 28.9 15.6 44% 29 76 1013.0
04 17:53 Vrbl 9 16.09 A Few Clouds FEW055 30 15.6 42% 30 76 1013.2
04 16:53 Vrbl 11 16.09 Fair CLR 30 14.4 39% 30 76.02 1013.3
04 15:53 E 17 16.09 A Few Clouds FEW055 30 14.4 39% 30 76.05 1013.8
04 14:53 NE 13 16.09 Partly Cloudy SCT055 28.9 14.4 41% 29 76.1 1014.6
04 13:53 NE 9 G 30 16.09 Partly Cloudy SCT055 28.3 14.4 29.4 20.6 43% 28 76.17 1015.5
Date Time (edt) Wind (kph) Vis. (km) Weather Sky Cond. Air Dwpt Max. Min. Relative Humidity Wind Chill (°C) Heat Index (°C) altimeter (cm) sea level (mb) 1 hr 3 hr 6 hr
6 hour
Temperature (ºC) Pressure Precipitation (cm)